Tracking 18624 objects as of 27-April-2017
HD Live streaming from Space Station
objects crossing your sky now

VANGUARD R/B

Track VANGUARD R/B now!
10-day predictions


NORAD ID: 12
Int'l Code: 1959-001B
Perigee: 561.1 km
Apogee: 3,335.3 km
Inclination: 32.9 °
Period: 125.9 minutes
Semi major axis: 8319 km
RCS: 0.5381 m2 (medium)
Launch date: February 17, 1959
Source: United States (US)
Launch site: AIR FORCE EASTERN TEST RANGE (AFETR)

Note: This is a ROCKET BODY
Your satellite tracking list
Your tracking list is empty





NASA's NSSDC Master Catalog

Two Line Element Set (TLE):
1    12U 59001B   17116.18487104 +.00000178 +00000-0 +96574-4 0  9998
2    12 032.9010 047.9516 1667343 159.6944 207.8767 11.44150462391008
Source of the keplerian elements: AFSPC